Location: Unspecified
(42.9300°N, 71.1866°W)
Time: 18:27:05
(UTC-04:00)

CZ-3 Stage 3 - Visible Passes

Search period start: 26 September 2016 00:00
Search period end: 06 October 2016 00:00
Orbit: 490 x 34713 km, 30.6° (Epoch: 25 September)

Date Brightness Start Highest point End Pass type
(mag) Time Alt. Az. Time Alt. Az. Time Alt. Az.
26 Sep 8.8 06:30:31 10° E 09:47:16 31° E 11:00:06 10° ENE visible
28 Sep 7.2 06:18:46 10° SE 13:53:05 67° SSE 14:42:11 10° E visible
29 Sep 8.8 06:15:47 10° E 09:37:32 32° E 10:51:44 10° ENE visible
01 Oct 7.2 06:06:26 10° SE 13:43:50 67° SSE 14:33:41 10° E visible
02 Oct 8.8 06:01:07 10° E 09:27:45 33° E 10:43:20 10° ENE visible
04 Oct 7.2 05:54:16 10° SE 13:34:32 68° SSE 14:25:09 10° E visible
05 Oct 8.8 05:46:29 10° E 09:17:57 33° E 10:34:55 10° ENE visible
